Weather in Stodolishche

Russia / Smolensk Oblast     54°11′01″N   32°39′01″E
temp.,
°C
wind,
m/s
gust,
m/s
humid.,
%
clouds,
%
prec.,
mm/h
press.,
hPa
HPBL,
m
19 april, mon
mon1900:00+4ene359279 0.0 1021139
03:00+4ne369059 0.0 1021155
06:00+4nne388894 0.0 1021218
09:00+6ne5118698 0.0 1020593
12:00+9ene687285 0.1 10201105
15:00+9ene697793 0.2 1020998
18:00+8ene3878100 0.1 1020947
21:00+6e4989100 0.3 1020784
20 april, tue
tue2000:00+6ene5987100 0.1 10191057
03:00+5ene5892100 0.3 10181005
06:00+4ene5897100 0.3 1017600
09:00+3ene4996100 0.4 1016564
12:00+3ne4896100 0.0 1016425
15:00+5ene5994100 0.4 1014566
18:00+5ene5994100 0.6 1013531
21:00+3ne4897100 1.8 1012400
21 april, wed
wed2100:00+3nne3698100 0.0 1010375
03:00+3n3697100 0.0 1008460
06:00+2nw4797100 0.0 1006610
09:00+3wnw4790100 0.1 1007627
12:00+5wnw5877100 0.0 1007874
15:00+7w5772100 0.2 10081150
18:00+8wsw4671100 0.4 1009840
21:00+5ssw3884100 0.4 1010182
22 april, thu
thu2200:00+3ssw3108972 0.0 1011210
03:00+3s31090100 0.0 1011203
06:00+5s41189100 0.1 1012343
09:00+8ssw598462 0.7 1012539
12:00+13ssw576428 0.1 10121223
15:00+12sw576869 1.1 10121002
18:00+13ssw486379 0.6 1013489
21:00+10s387951 0.7 1014153
23 april, fri
fri2300:00+7s378926 0.0 1014116
03:00+7sse4119163 0.0 1013230
06:00+7s5149393 0.5 1013406
09:00+11ssw5108080 0.6 1014664
12:00+14s7146351 0.3 10121750
15:00+14ssw81370100 2.1 10101829
18:00+6wnw579099 2.6 1012501
21:00+4wsw4693100 3.7 1014635